Home   Weather   Kingston   Past weeks

Flag for Norfolk Island Past Weather in Kingston, Norfolk Island — Yesterday and Last 2 Weeks

Now
66 °F

Passing clouds.


Feels Like: 66 °F
Forecast: 64 / 72 °F
Wind: 5 mph from Northeast

Location: Norfolk Island Airport

Current Time: Apr 27, 2017 at 4:48:09 am

Latest Report: Apr 27, 2017 at 4:00 am


Visibility: N/A

Pressure: 30.01 "Hg

Humidity: 68%

Dew Point: 55 °F

Location of KingstonLocation

Past Weather in Kingston — Graph

°F

Kingston Temperature Yesterday

Maximum temperature yesterday: 73 °F (at 9:30 am)
Minimum temperature yesterday: 63 °F (at 12:00 am)
Average temperature yesterday: 67 °F

High & Low Weather Summary for the Past Weeks

 TemperatureHumidityPressure
High75 °F (Apr 12, 9:00 am)100% (Apr 23, 4:00 am)30.24 "Hg (Apr 23, 4:00 am)
Low63 °F (Apr 15, 10:30 pm)38% (Apr 26, 1:00 pm)29.77 "Hg (Apr 12, 3:19 am)
Average68 °F69%30.05 "Hg
* Reported Apr 12 3:19 am — Apr 27 3:30 am, Kingston, Weather by CustomWeather, © 2017

Note: Actual official high and low records may vary slightly from our data, if they occured in-between our weather recording intervals... More about our weather records

Advertising

Kingston Weather History for the Previous 24 Hours

Scroll right to see more
 ConditionsComfort  
Time TempWeatherWind HumidityBarometerVisibility
3:30 am
Thu, Apr 27
66 °FClear.6 mph68%30.01 "HgN/A
3:00 am66 °FPassing clouds.6 mph64%30.01 "HgN/A
2:30 am66 °FPassing clouds.7 mph64%30.04 "HgN/A
2:00 am66 °FPassing clouds.6 mph60%30.04 "HgN/A
1:30 am64 °FClear.7 mph60%30.04 "HgN/A
1:00 am66 °FClear.7 mph60%30.04 "HgN/A
12:30 am64 °FPassing clouds.7 mph68%30.04 "HgN/A
12:00 am66 °FPassing clouds.7 mph60%30.04 "HgN/A
11:30 pm
Wed, Apr 26
66 °FPassing clouds.6 mph60%30.04 "HgN/A
11:00 pm66 °FPassing clouds.8 mph60%30.04 "HgN/A
10:30 pm66 °FMostly cloudy.6 mph68%30.04 "HgN/A
10:00 pm66 °FMostly cloudy.7 mph64%30.07 "HgN/A
9:30 pm64 °FPassing clouds.5 mph64%30.07 "HgN/A
8:30 pm64 °FPassing clouds.5 mph64%30.07 "HgN/A
8:00 pm63 °FPassing clouds.5 mph68%30.07 "HgN/A
7:30 pm64 °FPassing clouds.No wind64%30.07 "HgN/A
7:00 pm64 °FPassing clouds.5 mph60%30.04 "HgN/A
6:30 pm64 °FClear.6 mph60%30.04 "HgN/A
6:00 pm63 °FPassing clouds.8 mph64%30.01 "HgN/A
5:30 pm66 °FPassing clouds.8 mph60%30.04 "HgN/A
5:00 pm68 °FScattered clouds.8 mph53%30.04 "HgN/A
4:30 pm70 °FScattered clouds.9 mph46%30.04 "HgN/A
4:00 pm70 °FPassing clouds.9 mph46%30.04 "HgN/A
3:30 pm72 °FPassing clouds.10 mph44%30.04 "HgN/A
3:00 pm72 °FSunny.13 mph44%30.01 "HgN/A
2:30 pm72 °FPassing clouds.13 mph41%30.01 "HgN/A
2:00 pm72 °FPassing clouds.13 mph41%30.01 "HgN/A
1:30 pm73 °FPassing clouds.15 mph38%30.04 "HgN/A
1:00 pm73 °FPassing clouds.12 mph38%30.04 "HgN/A
12:30 pm73 °FScattered clouds.13 mph41%30.04 "HgN/A
12:00 pm72 °FPassing clouds.12 mph44%30.07 "HgN/A
11:30 am72 °FPassing clouds.9 mph41%30.07 "HgN/A
11:00 am73 °FPassing clouds.9 mph41%30.09 "HgN/A
10:30 am72 °FPassing clouds.12 mph41%30.09 "HgN/A
10:00 am73 °FPassing clouds.12 mph41%30.09 "HgN/A
9:30 am73 °FPassing clouds.10 mph44%30.09 "HgN/A
9:00 am70 °FPassing clouds.9 mph50%30.09 "HgN/A
8:30 am68 °FScattered clouds.8 mph53%30.09 "HgN/A
8:00 am68 °FScattered clouds.10 mph53%30.09 "HgN/A
7:30 am68 °FBroken clouds.10 mph56%30.09 "HgN/A
7:00 am68 °FScattered clouds.7 mph60%30.07 "HgN/A
6:30 am64 °FScattered clouds.7 mph64%30.07 "HgN/A
6:00 am64 °FPartly cloudy.7 mph64%30.07 "HgN/A
5:30 am64 °FMostly cloudy.7 mph68%30.07 "HgN/A
5:00 am64 °FPartly cloudy.7 mph68%30.07 "HgN/A
4:30 am63 °FPassing clouds.6 mph73%30.07 "HgN/A
4:00 am64 °FPassing clouds.5 mph68%30.07 "HgN/A
Weather by CustomWeather, © 2017

See weather overviewHow to use our weather pages